EW9539 Weather Reports


Display with metric or nautical units.
time (UTC)temp
F
wind
direction
speed
MPH
gust
MPH
rain 1hr
in
rain 24hr
in
rain mn
in
humidity
%
barometer
mb
20260508001543 57 46 0.0 5.0 0.00 0.00 0.00 42 1011.1
20260508000043 57 14 1.0 4.0 0.00 0.00 0.00 41 1011.0
20260507234540 58 16 0.0 5.0 0.00 0.00 0.00 41 1010.8
20260507233039 58 38 1.0 6.0 0.00 0.00 0.00 39 1010.6
20260507231540 60 57 1.0 5.0 0.00 0.00 0.00 39 1010.4
20260507230041 60 46 1.0 5.0 0.00 0.00 0.00 41 1010.2
20260507224550 61 19 2.0 6.0 0.00 0.00 0.00 38 1010.3
20260507223036 61 39 1.0 5.0 0.00 0.00 0.00 41 1010.2
20260507221535 62 56 0.0 9.0 0.00 0.00 0.00 39 1010.2
20260507220035 61 42 0.0 4.0 0.00 0.00 0.00 40 1009.9
20260507214534 60 26 2.0 6.0 0.00 0.00 0.00 40 1009.8
20260507213034 61 57 1.0 5.0 0.00 0.00 0.00 39 1009.8
20260507211539 61 62 1.0 6.0 0.00 0.00 0.00 40 1009.7
20260507210038 63 345 1.0 6.0 0.00 0.00 0.00 42 1009.5
20260507204531 63 342 1.0 4.0 0.00 0.00 0.00 44 1009.6
20260507203029 62 82 2.0 4.0 0.00 0.00 0.00 39 1009.5
20260507201528 64 65 1.0 6.0 0.00 0.00 0.00 44 1009.7
20260507200024 62 346 1.0 4.0 0.00 0.00 0.00 44 1009.8
20260507194524 60 36 1.0 4.0 0.00 0.00 0.00 44 1010.2
20260507193021 60 22 2.0 5.0 0.00 0.00 0.00 48 1010.4
20260507191521 60 107 0.0 3.0 0.00 0.00 0.00 46 1010.4
20260507190021 61 24 2.0 6.0 0.00 0.00 0.00 46 1010.3
20260507184521 59 46 1.0 7.0 0.00 0.00 0.00 49 1010.5
20260507183021 60 5 1.0 8.0 0.00 0.00 0.00 51 1010.6
20260507181517 61 15 1.0 4.0 0.00 0.00 0.00 45 1010.5
20260507180015 64 5 1.0 4.0 0.00 0.00 0.00 51 1010.6
20260507174514 62 46 1.0 4.0 0.00 0.00 0.00 48 1010.7
20260507173011 58 35 1.0 4.0 0.00 0.00 0.00 46 1011.0
20260507171510 60 36 1.0 6.0 0.00 0.00 0.00 46 1011.1
20260507170007 61 64 1.0 4.0 0.00 0.00 0.00 43 1011.3
20260507164505 63 30 1.0 5.0 0.00 0.02 0.00 46 1011.5
20260507163100 61 360 1.0 4.0 0.00 0.02 0.00 47 1011.6
20260507163001 61 9 1.0 4.0 0.00 0.02 0.00 46 1011.6
20260507161600 61 40 1.0 4.0 0.00 0.02 0.00 53 1011.7
20260507160100 60 42 1.0 6.0 0.00 0.02 0.00 49 1011.9
20260507154553 59 59 1.0 3.0 0.00 0.04 0.00 54 1012.0
20260507153058 57 32 0.0 4.0 0.00 0.04 0.00 50 1012.1
20260507151549 59 32 0.0 3.0 0.00 0.04 0.00 51 1012.2
20260507150046 58 46 0.0 4.0 0.00 0.04 0.00 52 1012.5
20260507144543 58 70 1.0 4.0 0.00 0.04 0.00 52 1012.5
20260507143039 57 38 0.0 3.0 0.00 0.04 0.00 59 1012.7
20260507141537 57 44 0.0 3.0 0.00 0.04 0.00 59 1013.0
20260507140035 55 140 1.0 2.0 0.00 0.04 0.00 53 1013.2
20260507134529 54 253 0.0 4.0 0.00 0.04 0.00 62 1013.5
20260507133025 55 38 0.0 4.0 0.00 0.04 0.00 62 1013.5
20260507131530 54 165 1.0 3.0 0.00 0.04 0.00 64 1013.5
20260507130018 52 211 1.0 4.0 0.00 0.04 0.00 67 1013.6
20260507124517 51 235 1.0 3.0 0.00 0.08 0.00 75 1013.6
20260507123012 49 132 0.0 2.0 0.00 0.08 0.00 84 1013.7
20260507121506 47 132 0.0 2.0 0.00 0.08 0.00 88 1013.6
20260507120003 46 132 0.0 0.0 0.00 0.08 0.00 89 1013.7
20260507114502 46 132 0.0 0.0 0.00 0.12 0.00 89 1013.6
20260507113104 45 132 0.0 0.0 0.00 0.12 0.00 90 1013.5
20260507111557 44 132 0.0 0.0 0.00 0.12 0.00 90 1013.3
20260507110058 44 132 0.0 0.0 0.00 0.12 0.00 89 1013.1
20260507104553 43 132 0.0 0.0 0.00 0.26 0.00 89 1012.9
20260507103049 43 132 0.0 0.0 0.00 0.26 0.00 89 1012.8
20260507101601 43 132 0.0 0.0 0.00 0.26 0.00 88 1012.6
20260507100045 44 132 0.0 0.0 0.00 0.26 0.00 87 1012.7
20260507094554 44 132 0.0 0.0 0.00 0.55 0.00 86 1012.5
20260507093040 46 132 0.0 0.0 0.00 0.55 0.00 86 1012.5
20260507091552 46 132 0.0 0.0 0.00 0.55 0.00 85 1012.3
20260507090040 47 132 0.0 1.0 0.00 0.55 0.00 84 1012.3
20260507084532 48 132 0.0 2.0 0.00 0.64 0.00 83 1012.3
20260507083032 49 132 0.0 2.0 0.00 0.64 0.00 83 1012.3
20260507081542 49 132 0.0 0.0 0.00 0.64 0.00 84 1012.4
20260507080030 49 132 0.0 0.0 0.00 0.64 0.00 83 1012.4
20260507074531 49 132 0.0 0.0 0.00 0.64 0.00 83 1012.2
20260507073028 49 132 0.0 1.0 0.00 0.64 0.00 83 1012.1
20260507071526 49 132 0.0 0.0 0.00 0.64 0.00 82 1012.1
20260507070026 50 132 0.0 1.0 0.00 0.64 0.00 84 1012.1
20260507064526 50 132 0.0 0.0 0.00 0.64 0.00 84 1012.0
20260507063022 50 132 0.0 0.0 0.00 0.64 0.00 84 1012.1
20260507061530 50 132 0.0 2.0 0.00 0.64 0.00 86 1012.0
20260507060028 50 132 0.0 2.0 0.00 0.64 0.00 88 1012.1
20260507054522 51 146 0.0 3.0 0.00 0.64 0.00 89 1012.2
20260507053017 51 96 0.0 2.0 0.00 0.64 0.00 90 1012.3
20260507051517 51 23 0.0 1.0 0.00 0.64 0.00 90 1012.5
20260507050027 52 55 0.0 0.0 0.00 0.64 0.00 90 1012.5
20260507044528 52 55 0.0 0.0 0.00 0.64 0.00 90 1012.2
20260507043011 52 55 0.0 2.0 0.00 0.64 0.00 90 1012.4
20260507041509 52 175 0.0 0.0 0.00 0.64 0.00 89 1012.3
20260507040010 52 175 0.0 0.0 0.00 0.64 0.00 89 1012.2
20260507034507 52 136 0.0 2.0 0.00 0.64 0.64 89 1012.0
20260507033009 52 136 0.0 0.0 0.00 0.64 0.64 89 1012.2
20260507031503 52 136 0.0 0.0 0.00 0.64 0.64 89 1012.3
20260507030001 52 136 0.0 1.0 0.00 0.64 0.64 89 1012.6
20260507024621 52 136 0.0 0.0 0.00 0.64 0.64 89 1012.1
20260507023059 52 136 0.0 0.0 0.00 0.64 0.64 88 1012.0
20260507021616 52 136 0.0 0.0 0.00 0.64 0.64 88 1011.9
20260507020105 53 136 0.0 0.0 0.00 0.64 0.64 88 1011.7
20260507014613 53 136 0.0 0.0 0.00 0.64 0.64 87 1011.7
20260507013056 53 136 0.0 0.0 0.00 0.64 0.64 87 1011.3
20260507011554 53 136 0.0 0.0 0.00 0.64 0.64 87 1011.8
20260507010154 53 136 0.0 0.0 0.00 0.64 0.64 86 1011.3
20260507004551 53 136 0.0 0.0 0.00 0.64 0.64 86 1010.9
20260507003051 53 136 0.0 0.0 0.00 0.64 0.64 86 1011.1